Estación Meteorológica Peña el Pijo (Robertgarden) [ 09/30/20 10:55:34 CEST ]

Fecha Hora Presion(HPa) Temp (°C) Humedad % Rocio (°C) Viento ( m/s) Direccion Lluvia 1Hora(mm) Lluvia 24H(mm) LLuvia Total(mm)
2020-Mar-20 01:09:12 1007.300 - - - - N     39.88
2020-Mar-20 02:09:22 1006.700 - - - - N     39.88
2020-Mar-20 03:09:38 1006.200 - - - - N     39.88
2020-Mar-20 04:11:10 1005.500 - - - - N     39.88
2020-Mar-20 05:09:06 1005.300 - - - - N     39.88
2020-Mar-20 06:09:00 1005.400 - - - - N     39.88
2020-Mar-20 07:08:59 1005.600 - - - - N     39.88
2020-Mar-20 08:09:13 1005.700 - - - - N     39.88
2020-Mar-20 09:09:12 1006.100 - - - - N     39.88
2020-Mar-20 10:09:19 1006.500 - - - - N     39.88
2020-Mar-20 11:08:58 1006.400 - - - - N     39.88
2020-Mar-20 12:08:40 1006.500 - - - - N     39.88
2020-Mar-20 13:09:17 1005.900 - - - - N     39.88
2020-Mar-20 14:09:18 1005.100 - - - - N     39.88
2020-Mar-20 15:09:23 1004.400 - - - - N     39.88
2020-Mar-20 16:09:33 1003.800 - - - - N     39.88
2020-Mar-20 17:09:09 1003.700 - - - - N     39.88
2020-Mar-20 18:09:09 1003.400 - - - - N     39.88
2020-Mar-20 19:09:19 1003.700 - - - - N     39.88
2020-Mar-20 20:09:06 1003.900 - - - - N     39.88
2020-Mar-20 21:08:37 1004.600 - - - - N     39.88
2020-Mar-20 22:09:10 1005.200 - - - - N     39.88
2020-Mar-20 23:09:12 1004.800 - - - - N     39.88

Temperatura Máxima:    Temperatura Mínima:
Presión Máxima:1007.300 Hpa    Presión Mínima:1003.400 Hpa


Volver